RH
89 88 85 66 55 60 65 72 77 79 82 86 90 92 92 93 94 95 95 95 96 98 99 90 74 64 58 49 35 26 21 17 18 20 21 15 11 16 23 29 27 18 19 22 21 21 17 13 13 16 20 24 24 24 24 21 15 13 13 14 15 13 11 9 7 6 6 5 5 5 4 5 5 4 4 4 5 5 5 14 21 26 33 40 46 56 74 80
81 82 84 65 56 59 58 62 67 73 78 81 85 88 89 91 92 92 91 91 95 97 99 92 76 66 64 56 40 29 24 22 27 25 16 11 13 15 12 21 29 26 25 20 16 17 15 14 16 20 21 21 24 24 24 23 17 13 14 14 13 12 10 7 7 5 5 5 4 5 5 6 6 4 5 5 10 9 8 29 42 50 60 59 63 73 77 79
74 72 63 49 47 48 49 54 59 63 68 74 80 84 86 89 89 89 89 87 91 95 97 92 80 73 68 61 48 33 30 36 40 25 12 12 12 13 12 15 22 28 31 23 15 13 13 16 18 20 20 19 22 23 23 22 18 14 14 15 12 10 9 7 6 5 5 5 4 6 6 6 6 5 6 8 13 12 18 46 61 66 73 71 75 80 80 81
83 82 71 63 55 46 41 41 48 56 59 63 71 80 84 86 87 87 88 88 90 91 93 92 83 78 69 66 57 36 42 56 49 31 24 26 19 14 14 13 18 24 29 25 17 12 15 20 20 20 17 17 20 20 21 20 17 14 13 15 11 8 8 7 6 6 5 5 4 6 7 7 7 6 6 6 10 13 21 40 53 63 73 75 79 81 80 81
87 88 86 84 79 73 65 49 40 44 53 57 59 70 79 84 87 85 85 88 91 86 87 92 86 81 71 70 62 43 59 64 48 46 42 38 32 25 23 19 21 24 26 29 23 14 17 23 24 25 20 15 17 18 18 16 15 14 13 12 10 9 8 6 6 6 5 5 4 5 7 7 6 7 6 5 8 11 14 29 42 49 60 67 73 78 80 83
87 88 89 86 86 87 85 77 60 43 43 50 54 61 67 76 83 83 83 84 90 87 86 90 88 86 75 75 68 51 71 64 44 52 44 38 37 30 31 29 27 26 25 30 27 17 17 24 28 32 24 14 15 15 15 13 13 14 13 11 10 9 8 7 6 5 5 5 5 5 5 6 6 6 6 5 7 8 7 23 41 41 47 58 66 75 81 84
89 89 88 86 89 87 85 88 85 71 54 44 48 57 57 63 75 81 83 83 89 88 86 88 87 88 79 81 72 56 70 57 36 42 37 38 39 31 32 29 27 25 24 26 25 20 19 25 28 31 26 16 13 13 13 12 11 12 12 10 10 9 8 8 7 6 5 5 6 7 6 6 6 5 5 6 6 8 4 17 42 50 58 67 72 77 79 84
88 90 88 86 88 88 88 88 88 89 82 64 52 56 58 58 67 76 82 83 85 85 86 86 86 88 87 91 84 74 76 47 23 30 36 42 38 36 35 27 24 19 17 19 19 18 20 26 27 27 27 18 12 11 11 12 11 11 11 9 9 9 8 8 7 7 6 6 6 7 8 7 7 6 6 5 5 9 14 31 55 65 71 77 81 85 88 91
80 83 85 87 88 88 88 87 87 87 88 85 71 63 59 54 58 67 75 80 83 83 83 84 84 87 94 99 94 91 73 33 18 29 39 44 38 37 34 28 28 21 14 12 17 22 23 27 26 24 24 18 12 11 10 12 12 10 9 8 9 9 9 8 7 7 6 6 7 8 10 8 8 7 5 5 6 19 36 51 67 73 80 87 88 91 95 92
72 73 77 79 83 88 86 85 88 87 85 88 85 77 69 56 50 56 67 75 81 83 82 83 83 88 97 97 97 92 57 27 32 40 45 46 40 38 33 30 32 28 20 12 16 29 30 25 22 23 21 17 13 10 10 11 10 9 8 8 8 8 9 8 7 6 6 6 7 9 10 9 8 7 8 6 3 27 55 65 73 81 90 97 95 92 93 94
72 72 73 70 74 82 85 85 85 87 86 86 88 87 84 71 53 48 58 68 75 82 83 83 83 89 95 95 99 86 43 28 41 44 45 43 40 39 34 31 30 30 29 23 19 25 31 26 20 20 17 15 13 11 10 9 9 7 8 8 8 8 8 8 8 7 6 6 7 9 9 8 8 5 7 5 6 35 62 67 72 80 87 93 90 86 86 91
75 75 73 70 72 74 79 86 86 85 84 84 87 86 88 87 70 51 48 56 66 76 82 82 83 88 94 97 100 76 39 33 39 39 42 41 42 42 37 34 31 30 30 32 29 22 26 27 23 19 15 13 12 11 10 9 9 7 7 8 8 9 8 8 8 7 7 6 7 8 10 10 9 9 6 6 18 45 63 65 69 72 76 79 78 79 79 80
75 76 77 75 73 72 74 80 84 87 85 84 84 83 86 87 80 63 51 52 54 65 78 80 82 89 96 100 92 68 48 41 36 36 39 40 44 44 41 38 35 34 31 32 33 27 23 24 24 22 17 13 10 11 10 8 8 7 7 7 8 9 10 9 6 8 7 6 8 8 15 15 8 8 4 9 29 48 60 62 63 67 73 80 84 84 82 80
77 77 78 77 76 75 75 75 78 83 83 82 84 87 86 76 71 64 55 54 50 55 70 77 82 89 96 98 80 56 49 48 45 42 37 39 44 43 42 40 36 35 33 31 30 29 25 22 23 22 20 16 11 10 9 9 8 8 8 7 9 10 10 9 7 9 6 7 8 8 18 14 11 21 13 13 34 48 58 58 54 64 81 90 91 87 84 84
77 78 78 77 78 77 76 76 75 73 70 73 81 84 77 63 57 55 52 55 54 51 63 76 83 89 98 94 67 48 52 56 55 43 33 36 42 43 42 38 37 34 32 32 29 28 26 24 23 21 20 17 13 11 10 11 9 8 11 10 9 10 12 9 7 9 7 9 7 9 18 8 22 55 39 23 35 44 55 59 55 63 79 88 87 84 82 83
74 76 76 77 77 77 79 77 75 75 65 62 69 64 53 50 48 49 48 53 57 54 64 79 79 88 101 87 59 52 57 55 50 40 32 36 38 41 41 36 35 33 30 30 28 27 26 26 26 21 19 17 14 13 13 14 12 10 12 15 12 9 11 10 9 8 6 9 7 11 13 7 38 74 60 39 41 50 62 70 72 73 76 81 84 83 81 84
80 77 74 75 77 78 80 79 79 80 69 62 63 51 41 45 47 51 53 56 64 60 64 76 79 92 96 77 63 58 51 45 45 44 38 35 35 38 41 35 32 31 28 28 27 26 24 25 27 23 18 16 14 13 17 20 18 15 14 16 14 9 11 11 9 8 7 8 9 10 8 25 65 78 68 59 51 62 77 79 84 88 85 81 82 82 79 82
85 82 78 76 76 77 80 80 81 81 74 65 59 52 45 43 47 58 62 66 79 78 75 80 92 103 85 63 59 47 35 36 39 43 40 36 33 35 38 35 31 29 25 25 26 23 23 25 26 24 19 17 15 14 20 21 18 18 17 18 15 11 12 11 9 8 8 6 8 11 6 37 78 72 68 70 57 69 84 81 80 85 89 84 82 81 76 78
85 86 83 80 79 80 80 79 82 81 76 65 56 60 56 42 49 66 69 77 90 91 85 82 88 91 67 45 43 38 35 38 36 38 40 37 33 31 34 33 31 28 23 24 26 21 22 27 28 28 22 18 16 14 17 16 14 14 14 16 14 13 12 10 10 6 7 7 8 12 5 35 77 70 68 70 59 70 82 84 81 79 86 88 85 83 78 78
88 87 86 86 84 83 84 84 83 78 76 70 66 78 73 56 63 75 77 87 89 78 71 67 68 70 57 40 37 42 44 40 37 36 33 33 33 32 32 31 30 29 23 24 26 20 22 32 34 30 22 16 14 12 13 12 12 11 10 12 11 12 11 8 9 5 7 7 7 10 5 34 76 71 65 68 66 74 82 88 91 88 90 89 86 84 80 77
91 91 92 92 88 87 90 89 86 81 79 75 75 92 90 71 70 71 70 74 69 62 61 58 60 65 61 49 45 50 50 45 41 35 29 28 32 33 31 29 30 31 24 21 23 19 22 34 33 24 17 14 12 11 13 12 13 12 10 11 9 10 10 8 8 6 6 6 10 12 3 30 72 70 63 70 73 79 82 86 92 93 93 88 85 83 79 77
89 90 93 94 94 94 91 89 88 80 74 72 76 91 90 75 71 71 71 68 58 56 58 57 59 62 61 55 53 55 53 49 44 37 30 26 29 31 28 27 30 30 22 19 24 25 26 30 26 18 13 12 10 11 13 13 14 14 12 12 12 11 9 8 8 5 5 8 11 8 4 33 68 68 64 69 72 77 78 80 83 86 92 92 88 83 80 80
87 87 90 93 95 94 91 89 80 69 72 77 80 87 84 76 73 74 78 78 68 58 55 57 56 56 59 57 52 51 49 47 43 38 30 25 26 25 24 26 28 26 21 21 27 30 30 26 19 15 12 11 12 11 13 15 16 15 14 14 14 11 10 10 9 5 5 8 9 12 30 57 71 68 66 63 64 75 79 81 83 82 86 90 89 86 89 92
88 87 90 92 91 94 94 81 66 71 85 87 87 88 84 77 74 79 82 80 75 59 47 48 48 48 51 50 49 48 45 44 42 37 29 25 25 23 21 23 24 24 22 20 23 27 25 19 14 14 13 12 14 13 14 17 18 15 13 13 14 10 9 9 7 6 6 8 18 38 67 78 68 66 68 63 66 77 82 85 87 87 86 91 94 95 98 100
89 90 94 94 91 96 93 73 68 83 85 81 84 84 82 79 76 81 83 82 79 58 41 41 42 44 42 43 47 45 41 40 38 37 30 24 24 23 20 19 22 25 22 18 21 25 21 15 14 14 14 13 14 14 13 16 18 17 14 11 11 9 9 8 5 7 10 13 23 46 80 89 72 70 69 64 74 83 84 84 85 88 91 96 100 100 100 100
93 95 96 95 92 94 91 77 75 82 78 79 83 77 80 82 79 80 80 89 86 53 34 39 39 37 36 40 43 42 46 42 35 36 33 26 23 22 22 19 20 23 19 17 20 23 18 13 14 14 14 13 13 13 11 12 16 18 14 9 10 9 9 8 5 8 14 17 16 22 61 94 89 84 77 66 74 84 85 84 84 88 95 98 100 100 100 100
95 96 94 94 93 92 92 82 74 78 83 89 84 75 80 78 75 81 85 94 89 56 38 36 33 31 30 36 40 44 53 45 34 35 32 30 25 20 24 21 20 21 15 17 24 24 18 14 15 14 14 13 13 13 9 9 13 15 12 8 9 8 8 9 6 9 13 15 11 7 42 91 96 82 72 66 75 86 87 86 83 87 94 97 99 100 100 99
93 91 89 92 87 80 85 86 83 85 86 89 87 80 81 76 71 82 93 95 83 66 58 42 28 29 31 36 40 41 44 37 34 35 29 31 26 19 24 20 18 20 13 18 28 24 17 16 15 13 15 14 12 11 8 8 11 11 8 7 9 8 8 9 7 11 13 13 15 11 27 70 90 74 61 67 79 85 89 88 83 85 90 93 96 98 99 99
89 84 85 89 75 65 76 85 89 88 80 84 90 81 78 76 71 83 96 89 71 65 71 55 32 30 31 35 41 38 36 33 32 30 26 29 26 20 23 19 16 18 13 16 23 20 16 15 13 12 14 13 11 9 7 8 9 8 8 8 7 7 7 9 10 13 15 17 20 15 10 37 77 79 63 73 82 82 86 84 80 82 84 87 90 93 96 97
83 79 83 82 67 62 73 80 86 89 82 82 83 76 77 77 74 87 92 81 73 74 79 69 50 46 39 34 40 39 35 34 28 25 25 26 24 21 22 20 16 16 15 15 17 17 14 12 11 11 12 11 9 9 7 8 8 7 8 8 7 9 10 12 16 13 17 29 27 17 6 17 63 86 68 67 73 72 76 77 78 79 76 81 87 90 95 97
76 74 75 71 64 67 75 79 83 88 82 76 77 77 79 79 82 93 86 72 77 83 82 73 61 64 60 45 41 38 35 35 27 25 27 26 25 24 25 26 22 22 21 18 17 15 12 13 13 10 10 10 9 9 8 7 8 8 8 10 11 14 14 14 17 14 23 41 31 15 9 8 45 82 70 56 57 60 68 72 75 75 73 83 89 92 98 99
70 66 61 60 62 69 78 78 78 83 78 73 84 88 85 87 89 86 73 68 81 85 83 80 71 71 74 65 50 36 35 37 27 25 27 27 29 27 29 31 28 31 31 23 20 18 15 14 12 11 9 9 10 11 11 9 8 8 8 13 18 19 20 19 22 23 28 37 24 11 13 8 29 65 63 51 51 54 59 63 68 72 74 85 90 94 100 99
65 58 55 62 64 67 77 78 78 85 81 78 89 94 92 95 89 76 69 75 86 85 79 84 83 75 75 79 61 33 30 35 26 24 25 25 29 27 27 26 23 27 30 26 23 23 22 16 10 13 11 9 11 11 14 12 9 10 8 16 24 22 24 25 26 29 28 28 17 8 14 14 22 48 55 49 48 49 51 54 63 69 73 83 89 95 100 99
63 63 63 67 68 70 79 82 84 86 83 84 93 98 97 90 77 74 78 80 81 81 78 81 84 78 71 75 61 31 28 33 24 23 26 24 29 31 28 25 22 21 23 26 26 24 30 26 14 13 12 10 11 9 12 11 9 11 7 12 22 22 27 29 25 28 29 27 21 12 15 17 20 39 49 44 41 43 46 51 60 68 73 81 90 95 99 99
64 68 68 74 79 78 78 82 91 92 86 90 96 99 98 87 78 83 87 83 81 84 82 77 80 82 70 62 52 31 27 34 25 21 26 26 29 32 29 26 23 21 23 29 27 20 24 24 13 12 11 9 11 9 8 9 11 12 7 9 17 20 29 30 24 29 31 29 30 24 21 21 24 36 42 40 42 43 44 49 58 67 74 84 93 97 99 100
62 66 72 85 88 81 79 81 88 88 85 94 101 97 93 85 82 84 80 80 89 94 92 82 78 83 72 57 52 34 23 31 29 23 26 26 25 27 25 24 22 20 22 28 26 21 27 25 12 11 11 8 11 9 6 10 14 13 11 13 13 12 21 28 27 30 33 34 36 27 20 25 35 46 45 39 44 47 46 50 59 68 77 86 94 98 99 100
66 70 75 83 79 74 79 79 80 85 88 98 102 91 86 78 68 69 70 75 87 94 98 93 83 83 74 59 55 44 28 27 26 24 27 26 25 24 21 20 20 18 19 21 21 23 32 30 12 10 14 10 10 11 7 9 11 12 14 12 10 9 14 26 33 30 31 37 37 23 17 28 45 63 65 50 44 48 48 53 66 75 79 86 93 99 100 100
73 77 76 75 68 66 76 76 78 88 92 97 98 86 81 76 63 62 65 70 83 94 99 97 89 86 80 65 57 46 34 29 25 24 28 27 26 23 19 19 19 16 15 17 20 22 30 33 17 9 15 13 9 12 14 11 7 9 11 7 12 21 20 24 34 35 30 31 33 27 20 27 40 55 62 53 48 55 56 62 75 78 79 88 96 100 100 100
80 85 79 71 65 66 77 77 78 88 93 96 96 82 72 70 60 55 58 67 83 95 95 91 89 91 86 76 62 42 29 30 27 24 27 28 27 22 17 18 18 16 14 14 18 22 30 41 31 13 13 15 12 14 20 19 11 7 8 6 12 23 23 21 27 31 33 33 35 31 23 28 37 37 37 42 53 62 65 71 78 76 80 92 99 100 100 100
86 94 79 66 67 70 74 76 79 89 95 94 88 77 72 75 65 56 59 69 81 89 88 86 90 91 83 78 68 44 28 29 27 25 26 25 26 24 17 15 15 15 13 11 14 19 25 38 37 20 13 16 16 16 17 18 13 8 12 13 11 14 17 20 21 20 28 39 37 31 32 37 36 28 26 36 51 60 66 73 75 74 84 96 98 100 100 99
92 98 80 66 68 66 69 80 84 90 94 88 80 75 79 83 75 62 60 66 75 80 83 87 93 91 85 84 79 58 38 29 24 25 25 21 25 26 18 15 14 11 12 13 14 21 28 35 38 30 21 19 16 12 10 11 10 9 14 17 15 16 16 21 26 16 17 34 37 34 41 43 35 28 28 36 48 57 62 68 71 75 88 97 98 100 100 99
93 91 79 74 73 64 71 84 81 85 95 87 76 75 79 80 76 68 62 63 68 71 78 91 95 92 88 85 78 67 48 29 22 25 25 21 23 23 16 14 13 9 13 16 13 21 32 35 34 30 22 16 13 9 8 10 8 7 11 12 12 18 18 24 41 34 17 22 30 29 34 44 51 43 32 37 49 56 59 64 70 78 89 96 98 99 99 98
95 88 78 79 77 67 78 87 76 77 84 75 70 76 80 79 78 75 70 67 69 72 82 92 88 82 81 73 68 67 52 29 20 25 26 22 19 18 14 13 13 8 11 17 15 19 28 29 29 28 21 13 10 9 7 8 8 9 12 11 10 14 14 21 41 42 27 23 29 28 28 47 66 52 35 42 48 49 55 63 72 83 89 94 98 99 99 98
99 91 80 79 79 73 81 84 78 79 76 68 75 83 84 84 84 82 77 72 72 76 83 86 76 71 71 64 60 62 54 37 27 27 28 26 21 17 12 10 12 10 12 22 26 25 27 29 32 34 31 24 17 16 15 12 12 14 14 10 10 12 11 15 24 26 26 30 34 36 40 55 63 48 42 57 59 57 63 69 78 87 91 95 97 97 99 99
96 86 73 71 77 79 79 74 77 86 82 79 85 83 83 90 87 79 75 70 69 72 80 79 69 65 66 62 57 54 46 38 33 30 29 26 21 17 11 9 10 9 11 18 23 26 29 35 41 45 48 45 36 29 25 18 15 16 15 11 10 10 10 16 21 23 31 35 30 41 57 58 51 45 52 68 76 80 83 82 85 89 92 95 95 96 100 99
94 89 77 72 73 74 72 66 71 80 80 87 93 81 81 92 85 73 72 72 70 71 75 74 64 64 68 65 62 54 39 32 35 34 29 27 24 17 11 11 9 8 14 16 15 22 30 34 38 44 50 48 37 25 18 16 16 18 16 12 11 12 13 17 23 29 41 38 25 40 61 52 45 61 76 81 86 92 93 91 91 91 92 95 94 96 100 100
87 88 87 89 84 74 71 66 67 72 72 83 93 83 82 90 82 74 75 75 75 75 75 71 63 66 71 64 64 60 38 26 31 31 26 26 24 18 13 12 9 11 17 16 13 25 40 39 33 36 38 31 21 15 13 14 15 17 18 14 12 14 15 21 31 39 50 47 32 43 59 50 49 73 87 87 90 94 94 93 92 92 93 94 95 97 99 100
84 84 84 92 90 83 82 77 72 73 68 73 86 84 82 85 82 83 84 80 81 83 84 81 70 66 68 60 61 65 49 36 38 38 35 31 25 23 22 17 11 12 16 17 15 25 43 44 34 33 33 24 15 13 13 13 12 13 17 18 17 17 18 25 35 36 42 52 53 55 56 51 58 77 86 87 90 92 92 93 91 91 94 94 96 99 100 100
92 91 85 88 91 87 85 78 73 72 66 71 86 84 77 78 78 80 84 87 91 89 90 95 83 69 66 58 60 74 77 73 72 68 66 60 39 24 26 27 19 12 14 20 22 26 36 40 34 32 34 31 23 15 11 12 13 14 17 19 22 24 24 25 29 26 27 44 60 59 51 56 73 87 88 85 85 88 91 94 94 94 95 95 96 99 100 99
97 99 94 95 97 86 76 72 69 68 66 73 86 78 67 71 74 72 77 89 99 97 94 97 86 71 65 61 66 81 85 85 89 83 79 79 59 32 25 26 21 16 14 18 25 32 38 38 34 34 39 39 29 20 18 15 14 16 16 15 18 23 23 21 23 25 25 36 55 58 53 66 83 88 88 86 85 90 94 96 98 97 95 95 97 100 100 99
99 101 99 100 98 84 73 69 64 66 73 78 80 72 66 68 69 69 75 82 91 96 93 91 87 77 69 66 75 85 81 79 85 79 69 73 71 57 42 28 19 20 20 17 24 38 45 46 43 42 48 48 35 27 31 24 17 21 21 17 19 23 25 23 22 24 22 30 52 58 57 78 94 89 89 92 88 91 96 96 98 98 95 95 98 100 100 99
100 100 99 101 98 84 74 69 65 69 77 74 69 69 71 68 60 63 75 78 77 82 84 83 85 84 84 86 84 77 70 70 76 75 68 64 62 58 51 37 22 20 23 25 29 37 43 49 50 42 43 45 34 33 45 40 26 30 36 32 27 25 26 24 23 27 24 26 46 55 56 77 95 91 92 96 92 92 96 96 97 97 95 96 97 99 100 99
Wind_Speed
19 19 19 18 18 18 18 18 18 18 18 18 18 18 18 18 18 18 18 19 19 18 19 20 19 19 19 19 19 20 21 24 23 21 23 21 18 15 15 13 14 19 19 16 15 14 16 18 19 17 15 15 17 20 20 21 22 16 7 5 7 7 7 7 7 8 7 8 10 11 9 6 4 4 9 7 3 4 2 6 8 3 6 22 27 33 42 37
18 18 19 19 19 18 18 18 18 18 18 18 18 18 19 19 19 19 18 19 19 18 18 20 21 20 20 19 19 19 21 23 25 26 25 19 17 17 19 18 16 17 18 18 17 15 16 18 18 15 18 19 17 19 18 18 20 13 4 5 9 6 8 10 10 13 11 12 12 3 3 3 4 4 2 3 4 7 0 8 18 20 20 26 31 37 40 38
18 18 19 19 19 19 18 18 18 18 18 18 18 18 18 18 19 19 19 19 19 19 18 20 21 20 20 19 19 19 21 22 25 25 20 15 17 19 19 19 19 19 19 19 18 17 17 16 15 15 20 18 18 20 17 17 17 13 9 6 8 8 8 15 17 20 19 19 15 2 6 7 9 12 8 3 3 4 5 11 17 23 27 31 36 38 38 40
19 19 19 19 20 19 19 19 18 18 18 18 18 18 18 18 18 18 18 18 19 19 18 20 21 20 19 19 18 18 19 19 18 12 7 7 11 16 19 18 19 21 21 19 18 19 18 17 16 18 20 15 18 21 16 17 15 11 12 6 6 10 9 19 24 24 25 27 17 4 5 3 6 11 10 7 4 2 4 17 21 27 34 36 39 39 38 40
20 20 20 20 20 20 20 20 19 18 17 17 17 17 18 18 18 18 18 18 18 19 18 19 20 20 20 19 17 16 15 10 4 1 5 5 0 6 12 16 19 21 22 21 19 21 20 20 18 17 16 12 15 16 14 23 19 9 12 12 11 11 9 19 28 29 30 30 22 4 7 6 5 5 9 8 3 4 4 16 29 33 37 40 41 42 40 41
20 20 20 20 20 20 20 20 20 19 17 17 17 17 18 18 18 18 19 19 18 18 17 18 19 20 21 19 17 14 9 4 4 6 4 9 8 8 9 12 16 20 22 23 22 21 20 21 17 12 11 10 12 12 14 25 24 9 9 14 19 19 13 17 27 30 30 23 17 8 1 4 6 1 11 11 6 4 8 9 28 33 35 40 42 43 43 43
20 20 20 20 19 20 20 20 20 20 18 17 17 17 17 17 18 17 18 18 18 18 17 18 18 19 22 20 18 13 14 17 7 4 11 17 14 13 13 12 12 18 22 23 24 23 21 21 18 14 9 8 11 13 16 23 24 14 8 10 19 24 20 24 30 28 27 21 14 8 6 5 3 2 10 8 3 5 12 8 26 33 33 38 39 41 43 40
21 20 20 20 20 20 20 20 20 20 20 19 18 17 17 17 17 18 18 18 18 18 17 17 16 18 20 18 16 13 18 25 13 3 15 16 12 11 11 8 6 14 21 23 26 25 23 21 19 17 8 8 12 13 18 19 18 15 12 11 15 21 23 30 36 30 26 24 20 11 5 6 8 8 11 8 3 3 5 11 29 34 33 33 29 29 29 29
21 21 21 21 20 20 20 20 20 20 20 20 20 18 17 17 17 18 18 17 17 17 18 17 16 17 18 16 14 14 22 23 10 6 12 11 10 8 7 6 4 8 16 22 26 24 22 21 21 19 10 10 14 14 19 15 10 13 15 15 13 16 22 27 31 30 27 24 18 8 1 5 13 14 10 7 5 4 15 24 31 30 26 26 23 23 20 24
23 22 22 22 22 21 20 20 20 20 20 20 21 20 19 17 17 18 18 18 17 16 17 17 16 15 16 16 12 14 21 19 10 11 12 8 8 8 9 9 8 10 13 19 24 24 23 22 20 21 16 14 13 13 19 14 10 15 20 20 17 17 21 24 24 24 25 20 14 7 2 6 12 13 3 2 5 11 26 25 23 21 19 20 20 22 21 19
23 23 23 23 23 22 22 21 20 20 20 20 21 21 20 19 18 17 17 18 17 16 16 16 16 16 18 18 16 18 21 18 16 15 12 8 5 7 12 12 11 14 16 17 22 24 25 23 20 19 13 11 13 11 16 19 16 19 21 19 19 18 20 22 20 20 18 12 16 15 5 6 10 9 5 6 4 16 30 24 22 20 17 17 18 20 22 17
24 23 23 23 23 23 23 22 21 20 20 20 21 21 21 20 18 17 16 17 17 16 15 15 15 17 19 22 26 30 28 23 21 18 14 13 9 8 12 15 13 14 15 17 20 22 23 23 22 20 14 9 9 7 10 20 22 22 18 12 14 17 16 19 18 20 15 7 13 14 4 5 6 5 9 9 9 22 28 24 24 23 18 17 19 20 21 21
25 24 24 23 23 22 23 23 23 22 20 20 21 21 21 21 20 18 16 16 16 16 15 15 16 17 19 25 32 35 33 28 24 24 21 19 16 12 12 15 14 13 14 16 17 19 21 23 24 25 23 14 8 8 11 16 19 18 14 7 8 11 12 17 18 19 14 6 8 9 2 6 5 9 17 9 21 27 25 23 23 23 22 22 22 22 20 21
25 25 24 24 24 23 23 22 23 23 22 21 21 21 22 21 21 19 17 16 16 15 15 15 16 18 21 27 33 34 32 27 27 29 25 22 21 17 14 14 14 14 15 16 17 16 18 22 25 25 25 21 14 14 14 12 12 10 9 7 5 6 5 11 15 15 12 10 10 8 2 7 2 6 14 12 26 30 27 25 24 22 25 27 25 24 23 22
25 25 25 25 24 24 23 22 23 24 24 23 22 22 23 22 21 20 18 17 16 15 15 16 16 17 21 27 32 28 21 21 24 25 27 24 22 21 16 13 14 16 16 17 18 16 14 18 23 22 19 22 19 13 9 6 6 6 7 7 5 4 3 6 11 13 10 10 14 10 2 5 2 2 6 20 29 31 29 27 26 25 25 27 27 27 26 23
25 25 25 25 24 24 23 23 23 24 25 24 23 23 24 23 21 20 18 17 16 14 14 16 16 16 16 19 23 22 19 22 22 19 25 25 24 23 18 14 14 15 16 17 17 17 16 14 20 22 17 16 13 8 5 5 5 5 6 5 5 6 4 4 7 12 14 9 11 11 4 3 4 2 12 26 31 31 26 22 25 29 27 26 26 27 26 24
26 26 25 24 24 23 23 23 23 24 25 24 24 23 22 22 20 18 16 15 15 14 14 16 16 16 18 19 21 21 21 23 21 17 18 20 26 27 19 16 17 16 17 18 18 19 18 15 15 16 15 10 6 6 6 7 6 4 4 4 5 6 6 5 5 8 16 12 9 11 7 3 6 5 12 23 29 29 24 21 25 30 30 28 26 25 25 25
26 26 26 24 24 23 23 23 24 25 26 25 24 22 20 19 16 15 16 15 12 10 11 15 15 11 15 22 21 18 15 13 16 19 17 15 25 31 24 18 17 16 17 17 19 20 17 14 10 7 9 9 7 8 8 7 6 5 5 4 4 5 6 8 6 6 13 16 12 10 9 7 9 8 10 17 25 27 22 22 26 29 32 31 29 27 26 26
26 26 26 25 24 23 24 24 24 25 27 26 24 21 18 16 13 13 16 14 10 5 4 10 15 10 9 17 19 16 17 18 16 19 20 16 20 28 27 23 20 18 16 12 13 19 14 8 8 7 8 11 10 9 8 7 6 7 7 6 5 6 6 8 9 9 12 15 13 10 9 10 11 10 10 12 20 24 21 21 23 26 30 30 31 30 29 28
26 26 26 26 25 24 24 24 25 25 26 26 23 20 17 13 8 6 7 11 15 15 14 13 19 24 22 27 28 22 22 24 19 17 21 18 19 24 27 26 22 18 13 8 9 16 14 7 8 9 9 11 12 11 9 9 10 9 9 8 9 8 7 8 11 13 12 12 13 13 10 10 13 12 12 15 18 17 16 17 18 22 25 27 30 31 31 31
26 27 26 26 25 25 25 25 25 25 25 25 22 16 13 11 6 7 11 12 16 19 24 25 23 28 31 35 35 26 24 27 22 13 15 19 23 22 22 23 16 10 10 10 9 13 14 9 9 9 9 11 13 11 10 11 14 11 8 8 9 9 9 9 11 13 12 9 10 15 11 9 14 11 12 18 16 13 15 16 17 21 23 25 28 30 30 31
27 27 27 27 25 25 25 25 26 25 25 24 21 15 15 14 11 14 17 14 19 22 25 28 28 30 32 38 38 27 23 23 22 18 14 20 24 20 17 18 11 7 10 12 9 10 11 9 9 10 10 10 12 12 11 12 14 11 7 6 6 9 9 10 14 13 10 8 9 15 11 6 12 10 10 13 11 13 20 22 23 25 24 24 28 31 31 32
28 28 28 27 26 25 25 25 26 24 21 19 17 16 16 17 16 19 17 10 18 26 25 26 28 30 32 37 36 26 22 19 19 22 18 20 22 23 17 12 10 9 11 13 10 9 8 8 10 11 11 12 11 13 13 11 10 10 7 5 5 7 8 8 13 13 9 9 9 12 7 6 9 8 5 7 12 16 18 20 23 26 27 27 30 32 33 33
29 28 27 27 27 25 25 26 24 18 15 15 16 16 16 17 18 18 14 7 10 21 28 28 28 30 32 34 28 20 21 22 21 23 20 22 21 22 17 12 12 10 11 15 13 9 7 8 13 12 11 13 12 13 15 10 8 10 9 7 6 8 9 8 9 8 7 8 10 13 6 3 7 9 7 6 11 15 16 18 18 19 23 24 26 26 29 31
29 28 27 28 27 24 25 25 17 12 14 15 15 15 13 12 14 14 9 5 5 14 24 24 25 28 32 31 26 20 18 22 27 27 21 24 22 17 14 14 12 9 12 16 14 10 7 11 17 15 12 15 13 12 15 11 6 8 10 10 10 12 11 10 11 6 5 5 8 15 6 1 2 4 6 8 9 10 14 16 15 18 21 22 23 23 26 28
30 29 28 28 27 24 24 20 12 13 17 14 13 14 11 9 10 9 4 3 4 7 10 13 16 18 24 26 25 21 13 19 30 31 21 21 24 18 10 11 10 9 12 13 9 6 7 14 17 15 14 15 14 11 15 15 7 6 9 10 14 16 13 10 13 9 5 5 8 12 7 2 1 4 5 5 9 10 11 11 13 20 22 22 24 25 27 27
30 29 28 28 26 22 19 18 17 17 16 13 13 14 9 5 5 4 2 2 4 4 4 11 12 11 19 24 24 17 6 11 22 29 27 22 23 23 12 8 8 8 9 9 7 5 9 16 16 16 15 14 13 11 12 15 9 6 9 10 13 15 15 13 11 8 5 5 8 9 9 5 3 5 9 6 8 9 9 9 11 18 22 23 24 26 29 29
30 29 28 27 23 17 15 17 18 18 13 12 14 12 8 6 4 2 1 2 2 4 6 5 10 10 15 22 29 22 8 5 8 19 29 25 22 22 13 8 9 9 11 8 7 7 9 14 17 18 15 11 11 10 11 15 11 8 9 11 11 12 14 13 7 5 4 6 6 7 8 6 3 7 9 7 8 8 10 12 12 16 23 26 27 28 31 30
30 29 27 24 19 13 11 13 15 16 13 10 11 9 6 5 3 2 1 3 3 6 11 7 6 8 12 17 23 23 15 11 7 12 24 25 23 19 10 11 11 9 13 10 6 8 9 14 18 17 13 9 11 11 12 14 11 8 10 11 11 11 11 9 5 4 2 6 7 9 8 5 2 6 7 7 7 9 10 11 11 17 25 28 29 31 32 32
30 27 23 20 17 11 11 12 12 14 12 8 6 4 2 1 2 3 2 3 3 5 10 8 6 8 5 12 14 16 16 16 13 13 18 17 20 18 12 14 12 7 10 11 8 10 11 16 17 15 12 10 11 12 13 13 10 9 10 10 10 9 5 4 4 1 1 3 6 9 11 8 4 5 8 9 12 14 12 11 12 17 24 28 30 34 35 35
27 22 18 16 15 12 11 10 10 10 9 6 4 2 1 1 2 1 3 1 1 4 6 6 9 14 8 5 9 14 15 15 13 12 13 9 12 14 9 9 9 5 6 7 9 11 13 14 11 12 17 14 10 12 13 12 10 10 9 7 6 4 2 3 4 1 2 3 6 7 11 9 5 5 9 11 14 16 15 15 17 17 21 28 32 34 35 36
22 16 12 12 12 11 9 8 8 8 6 4 5 4 1 1 0 3 3 2 2 2 2 5 9 10 11 10 6 14 13 11 11 10 11 7 7 9 8 6 5 4 5 6 8 9 10 11 8 11 19 18 10 9 11 11 10 10 8 5 4 2 2 4 4 2 3 4 7 10 11 7 5 9 16 17 12 14 15 17 22 22 24 30 33 33 33 34
18 12 9 9 10 9 8 8 7 6 5 4 5 5 1 1 2 3 2 1 1 1 1 3 9 10 11 11 6 13 13 9 10 11 11 10 8 8 10 9 6 4 4 5 7 6 6 9 11 11 14 17 13 7 8 8 9 11 8 5 5 5 4 6 3 2 2 3 6 8 9 5 1 5 19 21 16 19 22 24 31 32 31 33 34 34 33 34
16 12 11 9 8 8 7 8 6 5 5 4 5 3 2 3 2 3 2 2 2 2 3 4 8 12 10 7 7 9 11 9 12 13 11 10 8 7 8 11 13 9 3 5 5 5 5 7 11 9 8 14 14 8 8 6 6 9 8 5 4 4 5 4 2 3 3 3 4 1 4 4 3 6 18 20 18 23 25 27 34 34 33 35 34 34 35 35
15 13 12 10 10 9 8 6 6 5 4 3 3 2 3 3 2 1 2 3 2 3 6 8 8 7 5 6 9 9 10 6 10 12 9 8 7 7 8 9 14 11 5 5 4 6 6 5 9 9 8 16 14 8 10 8 5 7 7 4 5 4 5 4 3 4 4 1 2 1 1 2 2 5 15 16 14 18 21 25 31 31 32 35 34 34 36 35
15 14 12 11 13 10 7 5 5 3 3 3 3 2 2 3 2 2 1 2 3 4 8 9 4 2 1 2 6 8 10 6 8 8 7 8 7 8 9 7 11 11 8 5 3 5 5 4 11 10 8 15 13 7 11 9 5 5 5 5 5 4 4 5 2 2 4 2 3 3 1 2 3 2 6 15 16 15 17 21 26 29 32 34 32 34 35 35
16 16 15 12 10 6 6 7 3 2 3 2 3 3 2 2 3 3 2 2 2 3 6 5 1 2 1 3 4 6 9 7 8 6 5 7 7 8 11 9 11 12 12 8 2 4 3 4 12 11 6 5 4 3 5 6 5 5 5 5 4 4 2 5 3 1 3 3 3 4 3 0 2 2 3 8 16 16 15 18 21 26 29 29 29 33 34 35
17 17 15 10 5 3 8 8 3 3 5 3 5 6 2 2 5 5 4 3 1 1 3 2 1 3 1 2 3 7 8 6 7 7 5 5 5 8 12 10 10 13 15 12 5 3 4 3 5 8 6 1 3 3 5 6 6 5 6 5 4 4 3 1 3 3 4 3 3 5 6 3 5 6 4 7 14 16 16 17 19 21 24 25 27 31 33 35
15 13 10 5 3 4 7 6 4 6 6 3 4 5 2 4 8 7 3 1 1 1 2 2 0 2 2 2 4 6 7 6 6 5 4 4 3 9 14 9 8 12 14 12 6 3 5 4 1 4 7 4 2 2 3 5 8 6 6 6 4 4 3 2 3 4 4 5 2 3 5 4 3 9 13 14 16 18 18 18 18 20 24 27 29 31 33 35
11 9 6 3 3 4 5 6 6 6 5 3 4 4 4 7 9 10 4 3 2 1 2 3 2 2 3 4 5 4 5 6 5 3 3 5 4 8 15 11 7 9 11 10 7 2 4 5 3 5 7 7 5 5 6 5 6 6 4 5 5 3 3 2 1 2 4 4 4 3 3 5 5 8 13 17 20 21 21 19 17 20 26 30 33 35 35 35
10 6 4 4 3 3 5 6 5 4 2 3 5 5 6 7 9 11 5 3 4 4 4 4 4 3 2 4 5 4 3 5 5 4 3 6 5 5 12 14 8 6 7 6 6 2 3 5 5 6 5 7 6 5 8 7 7 8 4 3 6 5 4 3 2 3 3 3 4 5 4 6 5 4 9 16 19 18 22 23 18 22 30 34 36 37 37 37
10 5 5 8 7 2 4 5 4 3 2 3 6 7 9 9 7 8 6 1 1 3 4 3 4 4 3 3 4 6 5 4 6 5 2 6 7 5 11 16 12 8 4 2 5 3 4 5 5 5 4 7 7 7 11 10 7 8 5 3 5 5 5 5 3 4 3 2 3 4 3 6 6 4 6 13 19 21 27 28 21 24 33 36 36 37 37 38
10 11 11 12 10 3 3 5 4 2 2 5 8 9 10 8 5 6 6 3 3 2 2 3 4 4 3 4 4 5 7 3 5 3 2 4 8 9 13 17 14 9 4 2 4 3 3 4 6 4 2 6 7 7 10 10 5 4 5 5 4 5 7 5 3 4 2 3 3 3 3 5 6 3 2 9 19 24 27 30 27 26 30 34 36 36 36 37
15 17 12 9 7 4 3 3 4 4 6 7 7 8 7 5 5 6 5 4 4 2 2 3 4 4 4 6 5 5 8 3 4 2 4 2 6 12 15 18 15 8 3 2 1 2 2 2 6 5 2 4 6 5 7 8 5 2 3 5 4 5 11 8 3 1 2 4 5 6 3 6 6 3 9 10 13 17 18 26 33 30 28 32 34 35 37 37
14 12 9 8 7 5 6 7 6 6 8 9 8 8 5 3 5 7 6 5 4 3 3 4 5 6 6 6 6 7 7 1 4 4 6 4 5 7 11 18 16 8 7 2 8 3 4 2 5 5 4 6 6 4 3 3 2 1 2 5 6 6 11 10 3 1 3 5 4 6 3 5 4 7 13 13 12 13 15 22 30 31 31 32 33 35 38 38
9 5 6 10 11 8 9 12 10 5 7 9 8 8 7 5 3 3 3 4 6 7 5 4 6 6 5 6 6 5 2 3 3 5 5 4 4 5 11 19 17 7 8 6 9 7 2 2 4 6 5 5 5 4 3 3 3 3 4 4 5 5 6 7 4 4 5 2 0 3 6 4 3 9 13 15 14 14 14 17 22 28 32 33 33 35 37 38
7 3 4 7 9 9 10 13 11 7 10 10 6 5 8 7 5 4 2 3 8 11 5 3 5 5 4 7 6 4 2 7 8 5 3 3 2 2 6 12 11 3 1 2 5 4 3 2 3 5 3 5 6 8 8 7 6 5 5 6 7 7 4 5 5 6 5 4 2 3 9 9 4 7 11 14 15 15 13 16 22 28 31 33 33 33 35 37
7 4 7 9 7 6 7 12 13 12 15 13 5 4 7 8 8 6 3 4 8 10 5 2 6 9 8 9 5 4 3 4 3 2 2 2 3 5 3 4 3 3 4 5 3 2 3 1 1 2 4 6 6 9 11 10 8 7 7 8 9 9 6 5 7 4 3 6 4 5 10 9 5 6 10 12 15 16 17 22 27 30 32 33 33 33 35 36
7 5 8 11 9 8 10 16 18 14 13 10 4 4 8 10 10 6 1 3 6 7 5 4 7 10 11 10 5 3 4 4 3 4 5 5 5 3 1 5 5 4 3 2 3 2 3 1 2 2 3 7 7 10 14 14 10 7 5 6 6 8 8 6 6 3 3 6 9 9 10 7 5 6 8 12 17 22 23 24 26 28 31 33 33 34 35 36
9 7 10 12 11 11 13 15 14 10 8 7 5 6 9 10 11 7 2 1 3 5 4 4 9 10 10 10 6 3 4 5 4 5 7 8 5 2 1 2 3 3 3 2 3 3 3 1 2 5 4 7 6 3 9 13 12 7 6 7 6 6 5 4 3 3 4 4 7 11 11 5 1 5 11 16 23 25 22 21 22 25 30 32 31 33 35 35
12 11 13 12 7 8 10 10 10 7 5 5 6 8 10 10 11 10 4 4 3 2 4 4 7 8 6 8 7 4 5 6 5 8 8 7 6 5 4 3 2 3 3 1 3 3 4 1 2 6 4 6 3 5 2 8 12 8 7 8 8 6 3 2 2 3 5 4 5 8 9 5 3 6 12 16 20 20 18 20 23 25 30 32 31 33 35 35
15 15 14 9 5 7 8 8 8 7 4 6 10 11 11 11 11 11 5 4 7 5 7 5 5 5 5 7 6 6 11 12 12 16 16 14 15 13 11 8 2 4 1 1 3 2 3 3 2 4 2 5 0 7 5 4 9 6 6 5 6 6 4 1 2 2 5 6 6 5 6 8 10 11 12 11 12 14 17 23 27 28 30 30 31 33 35 36
Wind_Direction
335 336 334 327 322 318 316 316 315 314 309 302 296 294 294 294 294 292 291 292 295 301 306 310 317 324 324 325 327 323 316 305 299 292 276 260 250 236 217 211 208 211 217 221 221 215 206 200 195 194 206 218 227 230 227 229 228 214 201 223 230 230 227 227 237 245 252 255 258 256 237 210 219 197 160 156 123 108 16 50 92 84 152 172 175 169 167 166
335 335 332 328 326 319 315 313 312 312 310 307 302 297 294 295 295 294 294 290 291 294 299 307 313 319 321 324 330 327 318 308 305 294 273 257 254 244 225 215 208 212 220 221 219 212 203 199 195 198 213 221 221 221 224 225 223 218 189 209 227 226 231 239 246 255 262 272 275 300 35 3 349 346 154 179 132 136 138 74 98 101 119 149 157 162 165 164
338 337 334 332 330 326 320 313 310 310 309 308 305 302 298 296 295 294 294 290 291 291 293 301 309 316 317 322 330 328 322 317 310 296 279 264 251 241 233 225 215 216 221 217 213 210 202 198 201 208 214 222 221 215 218 220 221 224 214 213 228 220 241 249 249 256 260 269 275 57 48 356 339 327 334 3 81 136 137 112 109 113 128 144 152 162 165 164
341 339 338 337 336 334 330 321 313 308 306 307 306 305 302 298 295 294 293 292 292 290 291 295 303 312 313 320 328 329 331 324 310 304 308 282 243 232 234 231 223 221 221 216 211 208 202 203 218 225 217 218 222 216 215 215 215 221 219 223 222 207 229 246 252 262 263 265 271 115 118 292 303 299 312 341 11 331 154 149 152 142 144 151 155 164 166 165
339 337 336 336 335 335 335 331 324 313 307 304 304 302 300 298 296 294 292 292 291 289 290 290 297 306 308 317 322 326 336 329 304 51 43 30 230 234 241 237 231 227 224 220 216 209 203 208 225 240 225 213 217 219 220 215 213 225 228 228 229 222 220 232 243 255 259 264 273 257 152 181 192 250 289 287 250 265 245 167 165 159 159 162 163 167 167 166
334 334 333 333 331 332 332 330 330 324 315 306 302 299 296 296 295 295 291 291 293 290 289 286 292 300 303 310 313 316 309 271 133 117 22 -0 343 324 309 272 241 230 227 223 219 212 210 215 226 245 234 213 211 215 221 216 214 226 237 225 226 234 242 240 238 242 251 264 274 275 83 123 131 254 283 267 238 252 286 200 171 170 171 170 167 168 168 167
330 330 329 330 328 328 328 326 327 326 324 316 306 299 295 294 294 295 292 292 293 290 290 286 289 295 299 303 302 302 269 246 192 100 334 331 319 313 319 301 251 230 226 220 217 212 212 217 222 230 234 220 211 214 222 219 217 222 233 226 221 226 238 253 254 251 258 275 285 301 5 14 77 321 285 275 234 252 287 243 172 168 167 166 166 167 166 163
329 329 326 327 326 324 324 324 324 323 324 321 315 306 299 296 291 291 292 292 291 290 289 286 287 290 295 302 302 301 268 245 217 287 320 325 317 309 308 295 255 226 221 215 211 207 209 217 221 221 232 232 213 214 222 221 221 222 226 230 221 223 227 241 254 260 265 274 278 290 8 332 312 304 297 296 304 293 258 177 158 159 157 158 159 159 157 151
331 330 326 325 324 322 322 321 321 320 319 318 317 313 306 300 292 289 288 289 291 290 288 286 285 285 289 294 293 287 264 243 225 286 296 317 319 304 291 270 280 242 220 213 208 206 210 218 221 218 233 244 222 216 222 223 221 215 223 233 225 227 230 232 244 252 258 262 257 262 6 299 294 294 297 285 295 94 138 146 147 149 144 146 151 151 146 151
335 332 329 327 324 322 320 318 317 316 315 313 313 314 312 306 299 292 287 286 287 288 287 285 283 281 281 280 275 273 264 244 247 274 257 278 306 283 269 257 268 262 235 219 211 208 213 216 215 221 240 253 240 221 219 227 229 217 218 231 233 230 237 240 246 249 251 248 214 189 217 246 259 266 287 297 273 127 125 121 123 119 100 111 128 137 147 156
335 332 330 328 326 323 319 317 315 312 312 311 308 310 309 307 305 299 292 285 282 286 286 284 281 275 271 269 257 256 265 256 251 258 236 232 260 259 255 247 252 255 243 230 219 213 214 216 216 224 238 246 251 242 228 232 237 237 225 225 232 230 237 243 252 256 255 248 200 179 177 221 237 246 222 235 250 117 117 113 119 116 97 106 116 131 154 164
332 331 328 327 325 321 319 318 314 310 308 306 304 304 303 303 303 303 301 291 282 280 283 284 278 273 271 263 252 253 269 276 264 256 245 239 242 247 249 243 248 253 239 229 227 223 218 217 222 234 242 237 251 261 246 234 235 248 242 227 226 224 233 234 242 253 254 254 202 177 155 232 227 247 243 220 145 118 118 116 120 121 126 142 146 151 159 166
329 327 326 326 323 320 319 318 315 312 307 304 302 300 299 298 298 300 302 298 289 278 276 282 278 275 271 261 257 262 275 283 277 267 255 252 255 250 244 243 248 249 243 237 231 226 223 222 228 241 248 249 250 250 261 249 239 247 249 247 225 220 229 223 228 244 247 250 190 148 137 249 215 236 250 204 133 126 118 115 124 126 134 147 151 152 148 157
327 326 324 323 323 321 319 317 314 311 308 305 301 298 296 297 298 298 297 296 295 283 273 274 277 275 267 265 267 271 277 281 282 272 252 249 256 247 242 247 251 244 243 246 233 223 224 226 232 243 249 251 255 253 261 259 241 239 246 250 223 211 225 213 214 223 237 243 202 154 208 247 213 242 242 180 137 133 129 135 146 136 131 137 140 144 146 154
326 325 323 322 321 319 318 317 314 311 310 306 302 299 296 299 300 299 296 292 293 289 277 269 269 271 269 272 274 276 285 283 275 256 233 238 249 242 243 252 252 245 241 242 241 239 232 226 231 236 243 249 253 255 256 254 234 218 226 233 221 210 212 212 207 204 222 229 192 171 226 231 187 28 154 150 146 145 145 148 149 141 134 136 141 145 146 151
328 326 323 322 320 319 318 316 316 312 309 307 303 300 298 301 301 297 295 289 289 286 276 269 263 264 267 273 278 279 276 264 257 237 221 230 238 233 237 248 250 248 242 240 244 249 242 239 237 229 231 242 242 240 247 256 240 214 205 203 215 211 199 221 214 203 209 215 186 182 217 198 163 102 129 144 150 147 145 143 140 139 140 143 145 146 144 144
331 329 326 324 321 320 318 316 317 312 311 310 306 304 302 300 298 297 294 287 289 285 273 267 266 272 266 264 278 277 264 252 251 249 235 228 227 224 227 240 244 239 238 238 241 245 240 242 238 221 223 234 225 212 223 233 222 213 203 193 223 210 188 211 231 210 200 204 200 190 202 148 126 128 130 144 149 142 139 143 138 135 139 146 147 146 149 146
331 331 329 327 323 321 319 317 316 312 313 314 309 309 303 294 293 291 285 282 288 294 280 259 257 281 268 252 259 271 280 274 256 253 249 231 220 218 218 228 235 230 228 232 232 233 230 232 230 206 210 221 221 210 206 218 205 193 196 192 232 221 199 203 218 222 195 197 204 192 193 156 125 132 131 143 146 137 138 146 142 139 139 143 146 149 156 155
331 331 329 327 324 322 320 317 315 314 315 316 315 314 309 305 300 281 274 267 251 243 258 237 221 224 262 257 256 273 296 295 269 242 233 229 216 212 213 217 230 232 222 217 217 217 213 217 224 207 202 208 216 215 209 219 211 201 200 197 214 221 226 213 208 221 201 193 197 192 192 165 142 146 142 144 141 132 136 143 143 143 140 143 148 151 157 160
329 328 328 326 324 321 319 317 315 315 316 318 319 319 320 326 320 287 274 242 228 230 239 239 221 225 251 267 269 284 300 299 282 231 214 219 207 201 207 213 229 239 223 203 196 204 205 211 221 210 202 202 211 222 218 221 233 224 202 202 210 215 239 224 213 221 202 186 195 198 198 169 153 155 150 147 139 131 137 141 143 144 143 147 151 154 157 158
326 326 326 324 323 320 317 315 314 315 316 315 317 313 303 306 301 308 321 286 258 252 247 252 244 238 254 267 272 287 304 305 299 257 215 210 196 187 199 205 218 236 212 202 191 194 207 219 219 209 202 200 207 221 221 219 235 238 210 202 203 205 233 236 229 225 196 178 189 196 205 175 157 158 151 147 141 146 154 151 152 149 145 150 155 159 158 154
327 327 325 322 321 320 317 315 314 315 314 310 306 291 274 283 289 299 314 304 283 273 257 256 253 246 254 264 268 276 285 291 292 278 236 203 189 178 191 197 204 221 198 201 195 184 209 223 209 203 203 205 206 212 224 226 231 242 229 217 207 197 213 234 244 238 197 177 183 190 201 165 151 150 146 150 144 155 162 160 161 157 150 152 157 159 158 155
329 328 325 322 320 318 318 316 315 317 318 315 307 290 277 280 286 297 307 299 287 279 262 253 250 245 247 257 261 262 266 268 272 268 234 203 192 180 186 193 200 213 195 201 203 182 204 215 201 205 203 206 205 201 217 233 233 239 229 226 243 214 198 210 242 245 196 174 166 169 166 114 133 131 129 147 133 138 155 158 161 162 159 159 159 158 156 156
329 328 326 325 323 320 318 318 320 326 328 324 314 300 292 286 283 295 301 285 280 276 265 251 244 241 239 248 254 245 250 252 257 260 226 203 197 185 191 197 196 210 201 204 210 198 200 188 192 209 205 204 207 197 207 224 233 237 230 221 240 240 221 202 227 238 188 171 134 123 99 75 142 142 139 143 127 129 140 144 153 162 160 155 154 153 152 152
330 329 328 327 325 321 318 321 327 330 322 312 307 306 311 311 296 289 289 284 264 270 270 250 236 239 234 240 243 231 245 250 249 253 226 200 196 189 198 198 197 216 201 200 210 209 201 182 189 206 205 203 209 201 204 211 226 241 233 222 232 248 246 218 217 209 162 191 144 121 109 307 171 136 140 139 131 132 137 142 149 153 152 148 146 149 150 148
332 330 330 328 325 322 319 322 323 316 317 312 308 314 319 330 313 282 254 283 264 264 261 215 210 227 222 226 227 219 245 257 249 252 240 213 202 197 204 195 199 221 200 196 213 214 194 185 190 203 202 201 209 211 207 204 209 238 225 217 231 245 256 244 226 209 162 196 181 145 137 172 330 315 272 169 143 148 144 144 148 147 150 151 148 149 149 148
333 330 330 326 323 324 318 315 318 316 318 317 316 318 315 317 311 283 223 245 261 300 272 183 177 196 205 208 200 190 223 247 244 248 241 230 212 205 216 203 193 216 203 188 204 209 193 188 189 198 201 201 208 212 205 198 202 232 225 221 230 238 252 256 241 225 179 164 194 171 130 121 166 225 239 203 139 144 147 147 152 149 152 155 153 152 153 155
331 328 327 324 324 327 315 309 316 317 315 316 317 315 312 309 303 326 13 271 276 350 338 213 189 193 198 195 186 188 217 203 214 237 230 230 220 207 217 220 200 211 213 199 192 196 198 193 186 192 202 204 206 210 200 194 202 225 228 231 238 237 244 253 261 260 191 150 204 202 130 111 176 193 198 173 149 161 161 159 164 156 155 158 157 156 158 161
329 329 328 325 327 331 318 309 314 321 322 320 315 309 317 322 331 47 144 280 341 10 346 313 221 202 193 184 184 198 225 232 221 211 212 224 224 213 224 230 218 216 224 228 201 185 209 209 190 187 203 203 198 207 207 200 199 211 226 237 243 240 241 250 265 282 208 170 205 206 165 129 145 186 179 159 167 183 171 165 167 160 160 162 160 160 162 161
330 331 327 323 328 330 323 317 319 329 333 328 320 312 318 352 43 33 253 274 2 355 334 319 311 319 241 181 181 199 216 237 239 191 189 215 223 223 239 235 234 236 227 235 222 200 210 213 197 188 200 200 191 200 213 211 191 196 224 240 245 243 253 274 259 272 56 228 226 197 176 155 138 194 187 177 187 183 168 160 161 162 162 162 162 163 163 161
332 330 326 324 327 322 317 324 332 336 334 335 346 329 255 122 89 300 261 297 0 308 323 315 324 338 324 201 189 200 209 233 235 182 175 206 216 219 232 228 232 247 230 224 221 214 205 204 202 187 189 196 192 192 210 218 200 198 214 220 236 255 304 297 271 169 125 256 260 206 180 168 161 196 199 202 195 175 165 162 162 162 158 158 162 163 162 160
335 328 328 328 322 315 311 325 340 338 333 341 345 320 240 139 180 240 257 4 335 293 23 325 318 336 328 314 245 200 204 230 226 178 167 193 210 207 209 207 190 190 218 208 206 218 207 198 199 180 183 195 198 181 201 216 207 208 208 189 193 192 212 232 238 214 188 243 244 199 183 191 186 181 190 200 192 169 171 167 160 158 153 156 162 161 159 158
335 330 336 328 318 322 319 319 327 331 331 332 327 315 255 226 234 208 231 314 285 262 118 271 293 307 306 307 266 200 196 219 216 180 169 190 211 205 208 223 221 204 206 194 196 208 198 194 196 182 177 194 203 180 190 207 196 205 207 172 169 166 187 214 200 166 192 259 252 192 170 203 254 171 184 189 183 173 174 164 157 157 154 157 161 158 157 159
334 331 333 322 317 330 323 311 312 315 316 320 324 305 257 278 254 205 235 252 248 269 265 253 278 294 279 258 259 209 186 217 212 178 169 190 200 201 203 219 231 237 213 185 196 189 181 188 193 188 165 185 205 195 180 185 174 202 211 170 177 180 171 194 164 140 190 247 284 227 154 204 240 190 185 185 177 169 165 157 153 153 152 155 158 156 157 160
334 328 327 326 324 328 327 313 297 294 295 300 308 268 251 283 271 265 260 254 287 286 284 284 273 277 254 232 261 221 180 222 215 178 175 191 190 196 199 211 224 232 219 189 188 185 192 181 184 195 167 175 201 203 177 174 168 200 211 187 221 220 150 150 160 152 159 183 307 314 180 213 240 179 170 169 165 159 152 146 146 147 149 153 156 157 158 158
331 328 327 325 316 315 325 312 277 262 269 278 282 252 255 279 267 308 297 235 299 307 306 305 266 223 212 233 272 224 185 212 220 189 179 190 199 202 197 211 222 226 225 201 152 175 187 174 184 190 162 172 195 202 180 174 162 191 210 200 228 233 136 120 155 121 98 114 272 257 245 355 6 32 146 155 155 152 147 143 144 148 151 153 157 159 158 156
332 333 332 326 316 305 286 288 281 226 243 254 280 271 232 262 263 253 255 267 292 295 311 322 34 27 258 206 278 239 198 200 206 190 167 184 206 202 200 223 228 227 233 224 186 171 164 165 182 167 119 168 217 277 224 198 165 174 201 211 227 237 177 114 129 88 97 138 268 255 228 247 105 13 317 160 149 147 148 142 142 149 152 155 159 159 157 156
332 336 335 336 336 290 265 280 295 234 247 253 279 278 215 228 272 251 236 264 317 273 305 318 353 355 317 198 273 243 206 190 186 177 168 184 199 197 202 222 226 228 238 237 233 197 150 118 165 145 111 84 305 312 287 278 248 195 175 193 189 187 215 115 126 158 155 162 293 276 240 225 150 157 205 182 150 142 144 141 143 154 158 157 156 156 156 155
336 334 328 336 325 269 256 277 273 239 251 268 278 284 282 285 300 312 294 224 128 277 297 334 345 321 319 283 278 232 194 178 181 173 163 180 190 201 208 220 223 225 236 239 237 204 145 107 113 157 137 139 256 225 217 269 259 218 172 194 194 157 167 163 146 160 160 164 216 264 246 249 202 167 170 168 151 143 145 145 151 161 162 156 153 155 157 155
357 333 309 318 304 244 239 266 265 244 248 268 270 283 304 301 309 323 316 175 158 224 265 328 311 303 324 300 289 258 194 181 191 181 167 190 179 192 213 225 228 226 235 244 251 235 119 113 145 172 158 167 208 214 198 214 222 202 185 192 197 177 135 133 222 187 148 153 179 194 237 265 242 180 163 156 151 151 151 152 159 162 157 155 156 158 159 158
5 325 284 316 312 238 243 255 247 244 243 256 263 276 303 304 305 318 318 173 182 214 224 285 288 281 312 290 299 301 231 190 197 199 170 189 187 195 222 225 224 236 236 242 264 252 122 113 143 171 181 189 203 204 203 218 207 187 192 194 185 178 130 112 282 251 155 146 164 162 215 273 266 196 161 149 151 157 154 154 162 159 154 156 160 161 161 160
350 306 294 317 317 260 239 253 243 235 222 273 292 306 318 310 298 315 329 252 247 247 224 250 262 252 259 268 307 309 272 210 193 217 190 178 192 220 231 224 223 241 235 221 273 253 127 116 144 164 181 187 198 205 210 230 218 171 188 218 168 160 147 132 184 226 207 206 183 144 187 261 277 243 173 147 151 158 156 156 156 154 156 159 160 161 161 161
326 305 305 306 304 278 230 259 274 255 231 284 303 306 309 310 298 314 333 333 327 320 240 252 257 258 282 294 303 303 285 229 171 241 298 167 194 223 225 218 219 232 229 212 263 252 95 109 151 149 139 176 190 208 216 235 233 163 200 218 161 170 183 164 172 193 203 228 200 125 166 254 288 295 111 132 147 151 153 151 146 147 155 158 158 158 160 160
316 311 311 302 298 289 264 285 309 311 302 302 302 289 283 281 279 297 322 325 308 293 271 278 272 268 287 289 282 288 292 275 146 241 281 174 206 226 211 200 209 227 198 139 297 219 173 107 141 139 98 161 182 202 219 232 231 182 207 204 193 185 181 189 242 263 271 234 172 128 170 253 286 53 82 97 130 138 140 142 143 145 150 154 155 155 157 158
319 319 326 328 316 270 256 285 300 302 311 318 316 311 310 275 260 276 293 297 302 308 285 280 289 283 282 292 288 283 284 238 129 240 252 212 214 229 202 194 205 221 196 192 4 6 185 129 121 146 148 166 182 192 209 224 213 294 275 200 200 192 178 188 207 129 259 251 154 124 176 249 310 59 92 108 119 119 122 132 139 143 147 153 154 154 156 156
323 328 337 334 328 307 292 303 310 308 316 325 325 328 345 348 305 299 299 309 351 347 306 273 297 290 285 312 312 295 283 146 186 250 233 206 217 220 209 204 205 211 203 231 345 7 156 149 129 145 155 175 177 163 165 169 172 230 271 225 211 218 186 168 162 178 201 242 146 152 153 151 57 66 101 125 124 119 123 128 136 144 150 156 157 155 157 157
337 338 349 342 332 333 337 333 335 331 313 319 327 322 335 345 348 4 0 351 2 352 322 275 327 330 318 326 328 310 226 191 224 250 180 203 284 166 197 204 198 204 310 289 331 15 89 144 152 144 179 204 174 154 166 182 195 210 228 227 228 237 205 142 173 205 161 124 249 202 134 130 125 100 117 132 128 126 135 140 146 151 155 157 156 155 157 157
0 335 343 355 342 333 339 324 318 313 310 315 323 311 326 349 3 16 2 340 359 1 357 336 339 342 333 327 329 312 283 213 244 328 142 234 340 53 33 325 264 279 347 353 333 46 88 149 170 153 248 242 202 175 170 178 202 213 205 204 214 237 243 178 185 213 117 123 196 180 130 130 139 122 125 134 134 138 145 150 153 154 153 154 153 154 156 157
358 324 327 345 334 306 302 300 297 299 310 318 326 323 335 352 4 19 355 318 347 1 10 353 331 335 334 327 331 354 354 356 341 353 6 343 353 67 40 318 306 290 300 321 322 34 88 25 20 52 301 278 241 194 170 169 194 217 205 201 213 232 241 213 189 191 98 133 160 151 127 120 128 130 125 126 129 133 137 144 149 151 152 153 153 154 156 157
355 340 324 326 321 306 302 302 298 297 310 322 331 337 342 349 356 3 18 28 346 335 350 359 336 332 332 330 341 55 25 355 329 330 351 352 348 44 115 254 269 267 228 216 343 24 74 16 5 61 23 299 270 181 156 169 182 197 209 221 228 227 234 232 188 120 99 137 158 144 124 99 110 130 117 118 123 126 130 138 145 151 154 154 154 156 156 158
351 344 330 320 312 313 317 317 312 305 308 329 338 342 345 347 345 344 355 135 138 284 282 316 330 325 331 347 3 21 348 329 305 302 324 334 303 285 283 262 208 183 210 219 16 33 76 41 350 64 45 286 276 45 57 176 170 178 209 223 225 214 203 243 227 152 137 132 133 137 132 135 181 136 119 125 130 130 135 142 146 154 157 157 158 158 158 159
350 346 341 328 297 304 323 327 318 315 330 344 340 337 336 335 334 338 343 154 162 210 248 277 327 339 349 351 346 330 317 306 298 301 303 296 283 280 287 289 224 142 183 38 51 27 79 82 39 68 43 277 197 64 38 132 148 185 234 237 225 196 161 207 263 188 160 137 129 166 174 159 158 142 128 136 140 139 146 149 150 155 160 161 162 162 162 162